ITY110 EGKK-LICC

Flight info

Callsign ITY110
Flight time 2h 28m
Altitude 39000
Route SFD Y47 BENBO L612 XAMAB UL612 OGULO DCT OKASI DCT OKEKO DCT MOU DCT MADIV DCT MOKIP DCT TUFTA DCT KOGAS DCT MEDAM DCT NITAM DCT MOGBO DCT TIDKA DCT KONER DCT GIANO DCT PAL DCT BEKIV DCT ENEPA DCT LIBRO
Aircraft A332/H-SDE3GHIJ2J3J5M1RVWXY/LB2D1

Departure

Time 2026-05-07 12:00
Airport London Gatwick Airport (EGKK)

Arrival

Time 2026-05-07 14:29
Airport Catania-Fontanarossa Airport (LICC)
Time Latitude Longitude Altitude Speed Heading
2026-05-07 10:40 51.15606 -0.16784 219 ft 0 kts 168°
2026-05-07 11:47 51.15617 -0.16787 217 ft 3 kts 168°
2026-05-07 11:47 51.15635 -0.16794 215 ft 3 kts 179°
2026-05-07 11:47 51.15655 -0.16787 217 ft 3 kts 232°
2026-05-07 11:48 51.15662 -0.16767 219 ft 0 kts 259°
2026-05-07 11:50 51.15662 -0.16768 219 ft 0 kts 259°
2026-05-07 11:50 51.15660 -0.16781 219 ft 2 kts 259°
2026-05-07 11:50 51.15659 -0.16811 215 ft 3 kts 267°
2026-05-07 11:50 51.15659 -0.16876 212 ft 12 kts 269°
2026-05-07 11:51 51.15648 -0.17009 216 ft 9 kts 258°
2026-05-07 11:51 51.15638 -0.17084 208 ft 7 kts 258°
2026-05-07 11:51 51.15623 -0.17186 214 ft 12 kts 256°
2026-05-07 11:51 51.15596 -0.17362 215 ft 15 kts 256°
2026-05-07 11:52 51.15576 -0.17431 217 ft 0 kts 238°
2026-05-07 11:52 51.15563 -0.17438 212 ft 8 kts 193°
2026-05-07 11:52 51.15465 -0.17407 209 ft 19 kts 168°
2026-05-07 11:52 51.15339 -0.17385 218 ft 18 kts 202°
2026-05-07 11:53 51.15283 -0.17578 213 ft 26 kts 259°
2026-05-07 11:53 51.15239 -0.17889 218 ft 29 kts 259°
2026-05-07 11:53 51.15197 -0.18209 219 ft 30 kts 257°
2026-05-07 11:53 51.15155 -0.18532 213 ft 30 kts 259°
2026-05-07 11:54 51.15112 -0.18856 218 ft 30 kts 257°
2026-05-07 11:54 51.15068 -0.19181 212 ft 30 kts 258°
2026-05-07 11:54 51.15025 -0.19504 217 ft 30 kts 257°
2026-05-07 11:54 51.14979 -0.19829 215 ft 30 kts 258°
2026-05-07 11:55 51.14934 -0.20160 212 ft 31 kts 257°
2026-05-07 11:55 51.14889 -0.20488 212 ft 31 kts 258°
2026-05-07 11:55 51.14843 -0.20822 209 ft 31 kts 258°
2026-05-07 11:55 51.14796 -0.21151 216 ft 27 kts 253°
2026-05-07 11:56 51.14753 -0.21378 216 ft 17 kts 240°
2026-05-07 11:56 51.14716 -0.21388 212 ft 5 kts 167°
2026-05-07 11:56 51.14702 -0.21382 215 ft 0 kts 166°
2026-05-07 11:57 51.14697 -0.21380 213 ft 2 kts 163°
2026-05-07 11:58 51.14642 -0.21343 215 ft 12 kts 159°
2026-05-07 11:58 51.14591 -0.21313 216 ft 11 kts 157°
2026-05-07 11:58 51.14534 -0.21237 217 ft 14 kts 121°
2026-05-07 11:58 51.14529 -0.21061 218 ft 0 kts 79°
2026-05-07 11:59 51.14530 -0.21059 218 ft 1 kts 79°
2026-05-07 11:59 51.14531 -0.21046 217 ft 2 kts 79°
2026-05-07 11:59 51.14568 -0.20757 215 ft 59 kts 77°
2026-05-07 11:59 51.14701 -0.19800 214 ft 116 kts 77°
2026-05-07 12:00 51.14909 -0.18310 234 ft 159 kts 78°
2026-05-07 12:00 51.15160 -0.16529 704 ft 166 kts 78°
2026-05-07 12:00 51.15407 -0.14767 1491 ft 160 kts 78°
2026-05-07 12:00 51.15647 -0.13001 2034 ft 171 kts 78°
2026-05-07 12:01 51.15918 -0.11012 2351 ft 194 kts 78°
2026-05-07 12:01 51.16047 -0.08861 2877 ft 201 kts 95°
2026-05-07 12:01 51.15582 -0.06686 3276 ft 218 kts 125°
2026-05-07 12:01 51.14334 -0.05145 3552 ft 239 kts 159°
2026-05-07 12:02 51.12681 -0.04447 4012 ft 253 kts 169°
2026-05-07 12:02 51.10937 -0.03911 4652 ft 263 kts 170°
2026-05-07 12:02 51.09132 -0.03270 5427 ft 266 kts 166°
2026-05-07 12:02 51.07330 -0.02487 5878 ft 267 kts 165°
2026-05-07 12:03 51.05552 -0.01669 6018 ft 269 kts 165°
2026-05-07 12:03 51.03753 -0.00826 5987 ft 269 kts 164°
2026-05-07 12:03 51.01955 0.00021 6065 ft 269 kts 164°
2026-05-07 12:03 51.00160 0.00868 6034 ft 268 kts 164°
2026-05-07 12:04 50.98401 0.01699 6038 ft 268 kts 164°
2026-05-07 12:04 50.96608 0.02545 6048 ft 267 kts 164°
2026-05-07 12:04 50.94820 0.03389 6053 ft 268 kts 164°
2026-05-07 12:04 50.93031 0.04233 6059 ft 268 kts 164°
2026-05-07 12:05 50.91236 0.05079 6059 ft 268 kts 164°
2026-05-07 12:05 50.89465 0.05913 6065 ft 268 kts 164°
2026-05-07 12:05 50.87676 0.06754 6068 ft 268 kts 164°
2026-05-07 12:05 50.85884 0.07595 6072 ft 269 kts 164°
2026-05-07 12:06 50.84078 0.08441 6067 ft 270 kts 164°
2026-05-07 12:06 50.82286 0.09281 6072 ft 270 kts 164°
2026-05-07 12:06 50.80475 0.10129 6067 ft 270 kts 163°
2026-05-07 12:06 50.78673 0.10971 6075 ft 270 kts 163°
2026-05-07 12:07 50.76853 0.11750 6066 ft 270 kts 170°
2026-05-07 12:07 50.75012 0.11831 6338 ft 270 kts 185°
2026-05-07 12:07 50.73136 0.11412 7071 ft 272 kts 191°
2026-05-07 12:07 50.71276 0.10763 8069 ft 273 kts 194°
2026-05-07 12:08 50.69430 0.10024 9060 ft 274 kts 194°
2026-05-07 12:08 50.67589 0.09267 9977 ft 278 kts 194°
2026-05-07 12:08 50.65667 0.08494 10561 ft 293 kts 194°
2026-05-07 12:08 50.63598 0.07693 10875 ft 317 kts 193°
2026-05-07 12:09 50.61406 0.06873 11159 ft 338 kts 193°
2026-05-07 12:09 50.59048 0.06013 11634 ft 351 kts 193°
2026-05-07 12:09 50.56646 0.05149 12340 ft 356 kts 193°
2026-05-07 12:09 50.54237 0.04287 13077 ft 360 kts 193°
2026-05-07 12:10 50.51763 0.03402 13831 ft 365 kts 193°
2026-05-07 12:10 50.49284 0.02587 14487 ft 368 kts 189°
2026-05-07 12:10 50.46701 0.02342 15141 ft 372 kts 178°
2026-05-07 12:10 50.44127 0.02989 15806 ft 377 kts 164°
2026-05-07 12:11 50.41719 0.04563 16441 ft 381 kts 154°
2026-05-07 12:11 50.39381 0.06634 17039 ft 387 kts 150°
2026-05-07 12:11 50.37105 0.08938 17655 ft 391 kts 148°
2026-05-07 12:11 50.34838 0.11362 18284 ft 395 kts 147°
2026-05-07 12:12 50.32586 0.13800 18797 ft 399 kts 147°
2026-05-07 12:12 50.30275 0.16277 19321 ft 402 kts 147°
2026-05-07 12:12 50.27966 0.18717 19829 ft 405 kts 148°
2026-05-07 12:12 50.25596 0.21187 20362 ft 408 kts 148°
2026-05-07 12:13 50.23216 0.23642 20860 ft 411 kts 148°
2026-05-07 12:13 50.20833 0.26086 21349 ft 414 kts 148°
2026-05-07 12:13 50.18401 0.28579 21852 ft 418 kts 148°
2026-05-07 12:13 50.15986 0.31057 22319 ft 421 kts 148°
2026-05-07 12:14 50.13529 0.33578 22793 ft 424 kts 148°
2026-05-07 12:14 50.11049 0.36122 23284 ft 427 kts 148°
2026-05-07 12:14 50.08582 0.38652 23716 ft 430 kts 148°
2026-05-07 12:14 50.06066 0.41229 24104 ft 433 kts 148°
2026-05-07 12:15 50.03544 0.43807 24486 ft 435 kts 148°
2026-05-07 12:15 50.00998 0.46408 24860 ft 438 kts 148°
2026-05-07 12:15 49.98457 0.48999 25228 ft 441 kts 148°
2026-05-07 12:15 49.95869 0.51635 25591 ft 443 kts 148°
2026-05-07 12:16 49.93305 0.54242 25972 ft 446 kts 148°
2026-05-07 12:16 49.90694 0.56896 26342 ft 448 kts 148°
2026-05-07 12:16 49.88061 0.59566 26705 ft 450 kts 148°
2026-05-07 12:16 49.85517 0.62336 27050 ft 454 kts 144°
2026-05-07 12:17 49.83007 0.65354 27404 ft 457 kts 143°
2026-05-07 12:17 49.80500 0.68452 27755 ft 459 kts 143°
2026-05-07 12:17 49.78035 0.71545 28081 ft 462 kts 142°
2026-05-07 12:17 49.75534 0.74703 28429 ft 464 kts 142°
2026-05-07 12:18 49.73870 0.76805 28649 ft 466 kts 142°
2026-05-07 12:18 49.70525 0.81023 29123 ft 468 kts 142°
2026-05-07 12:18 49.67987 0.84212 29439 ft 470 kts 143°
2026-05-07 12:18 49.65429 0.87416 29756 ft 473 kts 143°
2026-05-07 12:19 49.62864 0.90620 30072 ft 475 kts 143°
2026-05-07 12:19 49.60273 0.93850 30318 ft 478 kts 143°
2026-05-07 12:19 49.57717 0.97033 30592 ft 480 kts 143°
2026-05-07 12:19 49.55102 1.00283 30878 ft 481 kts 143°
2026-05-07 12:20 49.52483 1.03535 31263 ft 480 kts 143°
2026-05-07 12:20 49.49913 1.06722 31701 ft 478 kts 143°
2026-05-07 12:20 49.47329 1.09922 32151 ft 475 kts 143°
2026-05-07 12:20 49.44754 1.13106 32526 ft 474 kts 143°
2026-05-07 12:21 49.42182 1.16281 32897 ft 474 kts 143°
2026-05-07 12:21 49.39629 1.19429 33250 ft 473 kts 143°
2026-05-07 12:21 49.37054 1.22598 33612 ft 472 kts 143°
2026-05-07 12:21 49.34486 1.25755 34001 ft 471 kts 143°
2026-05-07 12:22 49.31926 1.28899 34311 ft 470 kts 143°
2026-05-07 12:22 49.29388 1.32010 34574 ft 470 kts 143°
2026-05-07 12:22 49.26828 1.35144 34833 ft 470 kts 143°
2026-05-07 12:22 49.24262 1.38281 35054 ft 471 kts 143°
2026-05-07 12:23 49.21696 1.41414 35299 ft 471 kts 143°
2026-05-07 12:23 49.19151 1.44516 35537 ft 471 kts 143°
2026-05-07 12:23 49.16580 1.47648 35774 ft 471 kts 143°
2026-05-07 12:23 49.14012 1.50770 36027 ft 471 kts 143°
2026-05-07 12:24 49.11467 1.53861 36275 ft 472 kts 143°
2026-05-07 12:24 49.08894 1.56981 36509 ft 472 kts 143°
2026-05-07 12:24 49.06312 1.60108 36715 ft 472 kts 143°
2026-05-07 12:24 49.03728 1.63234 36939 ft 472 kts 143°
2026-05-07 12:25 49.01180 1.66311 37163 ft 472 kts 143°
2026-05-07 12:25 48.98590 1.69435 37382 ft 473 kts 143°
2026-05-07 12:25 48.96008 1.72546 37618 ft 473 kts 143°
2026-05-07 12:25 48.93448 1.75625 37841 ft 473 kts 144°
2026-05-07 12:26 48.90855 1.78740 38064 ft 473 kts 144°
2026-05-07 12:26 48.88263 1.81851 38301 ft 473 kts 144°
2026-05-07 12:26 48.85671 1.84956 38543 ft 473 kts 144°
2026-05-07 12:26 48.83104 1.88027 38733 ft 473 kts 144°
2026-05-07 12:27 48.80506 1.91130 38905 ft 473 kts 144°
2026-05-07 12:27 48.77905 1.94234 39022 ft 475 kts 144°
2026-05-07 12:27 48.75329 1.97303 39042 ft 476 kts 144°
2026-05-07 12:28 48.70131 2.03484 39046 ft 476 kts 144°
2026-05-07 12:28 48.64926 2.09658 39047 ft 475 kts 144°
2026-05-07 12:29 48.59724 2.15810 39046 ft 476 kts 144°
2026-05-07 12:29 48.54754 2.22436 39049 ft 478 kts 138°
2026-05-07 12:30 48.50011 2.29522 39047 ft 478 kts 137°
2026-05-07 12:30 48.45339 2.36634 39053 ft 478 kts 137°
2026-05-07 12:31 48.40672 2.43718 39035 ft 478 kts 137°
2026-05-07 12:31 48.35948 2.50847 39053 ft 479 kts 137°
2026-05-07 12:32 48.31256 2.57893 39033 ft 479 kts 138°
2026-05-07 12:32 48.25969 2.63873 39048 ft 473 kts 154°
2026-05-07 12:33 48.17204 2.70614 39041 ft 473 kts 155°
2026-05-07 12:33 48.11405 2.75260 39050 ft 474 kts 154°
2026-05-07 12:34 48.05510 2.79540 39048 ft 472 kts 159°
2026-05-07 12:34 47.99492 2.83449 39048 ft 472 kts 159°
2026-05-07 12:35 47.93432 2.87284 39044 ft 472 kts 160°
2026-05-07 12:35 47.87435 2.91064 39046 ft 472 kts 160°
2026-05-07 12:36 47.81375 2.94886 39045 ft 472 kts 160°
2026-05-07 12:36 47.75317 2.98705 39034 ft 472 kts 160°
2026-05-07 12:37 47.69285 3.02499 39051 ft 473 kts 160°
2026-05-07 12:37 47.63244 3.06289 39039 ft 472 kts 160°
2026-05-07 12:38 47.57193 3.10075 39043 ft 473 kts 160°
2026-05-07 12:38 47.51108 3.13872 39043 ft 473 kts 160°
2026-05-07 12:39 47.45061 3.17636 39036 ft 473 kts 160°
2026-05-07 12:39 47.38976 3.21411 39038 ft 473 kts 160°
2026-05-07 12:40 47.32947 3.25144 39020 ft 473 kts 160°
2026-05-07 12:40 47.26875 3.28893 39034 ft 474 kts 160°
2026-05-07 12:41 47.20783 3.32647 39034 ft 474 kts 160°
2026-05-07 12:41 47.14676 3.36399 39029 ft 474 kts 160°
2026-05-07 12:42 47.08615 3.40114 39037 ft 474 kts 160°
2026-05-07 12:42 47.02516 3.43844 39039 ft 474 kts 160°
2026-05-07 12:43 46.96425 3.47559 39035 ft 474 kts 160°
2026-05-07 12:43 46.90351 3.51255 39022 ft 474 kts 161°
2026-05-07 12:44 46.84296 3.54930 39025 ft 473 kts 161°
2026-05-07 12:44 46.78236 3.58788 39020 ft 475 kts 154°
2026-05-07 12:45 46.72918 3.64599 39015 ft 483 kts 136°
2026-05-07 12:45 46.70841 3.68409 39015 ft 487 kts 125°
2026-05-07 12:45 46.69247 3.72781 39014 ft 490 kts 114°
2026-05-07 12:46 46.67275 3.82296 39016 ft 494 kts 106°
2026-05-07 12:46 46.65934 3.90412 39016 ft 495 kts 105°
2026-05-07 12:47 46.64343 4.00165 39016 ft 495 kts 105°
2026-05-07 12:47 46.62691 4.09898 39017 ft 495 kts 106°
2026-05-07 12:48 46.61004 4.19587 39015 ft 496 kts 106°
2026-05-07 12:48 46.59300 4.29281 39015 ft 496 kts 106°
2026-05-07 12:49 46.57578 4.39026 39016 ft 496 kts 106°
2026-05-07 12:49 46.55860 4.48708 39007 ft 496 kts 106°
2026-05-07 12:50 46.54134 4.58386 39012 ft 497 kts 106°
2026-05-07 12:50 46.52386 4.68136 39015 ft 497 kts 106°
2026-05-07 12:51 46.50644 4.77803 39015 ft 497 kts 107°
2026-05-07 12:51 46.48885 4.87513 39017 ft 497 kts 107°
2026-05-07 12:52 46.47125 4.97172 39024 ft 496 kts 107°
2026-05-07 12:52 46.45350 5.06865 39013 ft 496 kts 107°
2026-05-07 12:53 46.43580 5.16493 39020 ft 496 kts 107°
2026-05-07 12:53 46.41787 5.26208 39019 ft 497 kts 107°
2026-05-07 12:54 46.39985 5.35824 39022 ft 497 kts 110°
2026-05-07 12:54 46.37043 5.44722 39023 ft 488 kts 129°
2026-05-07 12:55 46.32851 5.52452 39022 ft 487 kts 133°
2026-05-07 12:55 46.28460 5.59839 39027 ft 486 kts 134°
2026-05-07 12:56 46.24015 5.67225 39012 ft 487 kts 134°
2026-05-07 12:56 46.19564 5.74670 39004 ft 488 kts 134°
2026-05-07 12:57 46.15158 5.82067 39001 ft 489 kts 134°
2026-05-07 12:57 46.10727 5.89497 38995 ft 489 kts 134°
2026-05-07 12:58 46.06304 5.96893 38989 ft 489 kts 134°
2026-05-07 12:58 46.01840 6.04334 38998 ft 489 kts 134°
2026-05-07 12:59 45.97429 6.11668 38995 ft 488 kts 134°
2026-05-07 12:59 45.92984 6.19037 38994 ft 488 kts 134°
2026-05-07 13:00 45.88550 6.26366 38993 ft 488 kts 134°
2026-05-07 13:00 45.84102 6.33703 38991 ft 488 kts 135°
2026-05-07 13:01 45.79354 6.40411 38993 ft 482 kts 146°
2026-05-07 13:01 45.73980 6.46178 38983 ft 481 kts 148°
2026-05-07 13:02 45.68581 6.51648 38985 ft 481 kts 149°
2026-05-07 13:02 45.63115 6.57139 38988 ft 482 kts 149°
2026-05-07 13:03 45.57625 6.62673 38974 ft 482 kts 149°
2026-05-07 13:03 45.52176 6.68177 38991 ft 481 kts 149°
2026-05-07 13:04 45.46700 6.73698 38982 ft 481 kts 149°
2026-05-07 13:04 45.41238 6.79198 38979 ft 481 kts 149°
2026-05-07 13:05 45.35776 6.84677 38980 ft 481 kts 149°
2026-05-07 13:05 45.30288 6.90161 38984 ft 481 kts 149°
2026-05-07 13:06 45.25041 6.96038 38982 ft 485 kts 142°
2026-05-07 13:06 45.20094 7.02656 38989 ft 489 kts 140°
2026-05-07 13:07 45.15242 7.09356 38976 ft 490 kts 140°
2026-05-07 13:07 45.10477 7.16372 39004 ft 495 kts 132°
2026-05-07 13:08 45.06377 7.24199 38989 ft 497 kts 129°
2026-05-07 13:08 45.02418 7.32167 38990 ft 497 kts 129°
2026-05-07 13:09 44.98419 7.40106 38965 ft 494 kts 134°
2026-05-07 13:09 44.93915 7.47465 38971 ft 492 kts 136°
2026-05-07 13:10 44.89345 7.54589 38969 ft 491 kts 137°
2026-05-07 13:10 44.84716 7.61719 38973 ft 491 kts 137°
2026-05-07 13:11 44.80107 7.68815 38976 ft 491 kts 137°
2026-05-07 13:11 44.75516 7.75887 38979 ft 491 kts 137°
2026-05-07 13:12 44.70892 7.82997 38973 ft 491 kts 137°
2026-05-07 13:12 44.66294 7.90050 38965 ft 490 kts 137°
2026-05-07 13:13 44.61676 7.97114 38956 ft 490 kts 137°
2026-05-07 13:13 44.57075 8.04134 38966 ft 491 kts 137°
2026-05-07 13:14 44.52441 8.11187 38969 ft 491 kts 137°
2026-05-07 13:14 44.47796 8.18238 38969 ft 490 kts 137°
2026-05-07 13:15 44.43186 8.25220 38975 ft 490 kts 137°
2026-05-07 13:15 44.38559 8.32210 38975 ft 491 kts 137°
2026-05-07 13:16 44.33904 8.39224 38980 ft 491 kts 137°
2026-05-07 13:16 44.29273 8.46184 38967 ft 491 kts 137°
2026-05-07 13:17 44.24616 8.53167 38985 ft 490 kts 137°
2026-05-07 13:17 44.19987 8.60090 38985 ft 490 kts 137°
2026-05-07 13:18 44.15325 8.67044 38988 ft 490 kts 138°
2026-05-07 13:18 44.10680 8.73956 38988 ft 490 kts 138°
2026-05-07 13:19 44.06034 8.80853 38987 ft 491 kts 138°
2026-05-07 13:19 44.01369 8.87760 38990 ft 491 kts 138°
2026-05-07 13:20 43.96677 8.94691 38990 ft 491 kts 138°
2026-05-07 13:20 43.92017 9.01558 38991 ft 491 kts 138°
2026-05-07 13:21 43.87323 9.08459 38993 ft 491 kts 138°
2026-05-07 13:21 43.82654 9.15305 38995 ft 490 kts 138°
2026-05-07 13:22 43.77708 9.21789 38996 ft 485 kts 144°
2026-05-07 13:22 43.72559 9.27810 38998 ft 485 kts 146°
2026-05-07 13:23 43.67384 9.33723 38999 ft 485 kts 146°
2026-05-07 13:23 43.62172 9.39661 38998 ft 485 kts 146°
2026-05-07 13:24 43.56988 9.45571 39003 ft 484 kts 146°
2026-05-07 13:24 43.51755 9.51440 39010 ft 481 kts 150°
2026-05-07 13:25 43.46056 9.56024 39008 ft 474 kts 158°
2026-05-07 13:25 43.40191 9.60085 38998 ft 473 kts 160°
2026-05-07 13:26 43.34267 9.64056 38999 ft 472 kts 160°
2026-05-07 13:26 43.28378 9.68007 39004 ft 472 kts 160°
2026-05-07 13:27 43.22454 9.71999 39007 ft 472 kts 160°
2026-05-07 13:27 43.16580 9.75960 39002 ft 472 kts 160°
2026-05-07 13:28 43.10665 9.79941 39004 ft 472 kts 160°
2026-05-07 13:28 43.04789 9.83887 38990 ft 472 kts 160°
2026-05-07 13:29 42.98870 9.87851 38984 ft 472 kts 161°
2026-05-07 13:29 42.92997 9.91776 39000 ft 472 kts 161°
2026-05-07 13:30 42.87124 9.95692 39006 ft 472 kts 161°
2026-05-07 13:30 42.81204 9.99632 39001 ft 472 kts 161°
2026-05-07 13:31 42.75324 10.03537 39002 ft 472 kts 161°
2026-05-07 13:31 42.69396 10.07465 39003 ft 472 kts 161°
2026-05-07 13:32 42.63500 10.11364 39003 ft 472 kts 161°
2026-05-07 13:32 42.57616 10.15246 39001 ft 472 kts 161°
2026-05-07 13:33 42.51679 10.19156 38999 ft 473 kts 162°
2026-05-07 13:33 42.45753 10.23048 39002 ft 474 kts 162°
2026-05-07 13:34 42.37855 10.28225 38998 ft 474 kts 162°
2026-05-07 13:35 42.31933 10.32099 38996 ft 474 kts 162°
2026-05-07 13:35 42.25975 10.35987 39000 ft 474 kts 162°
2026-05-07 13:36 42.20054 10.39842 38999 ft 474 kts 162°
2026-05-07 13:36 42.14117 10.43698 39000 ft 474 kts 162°
2026-05-07 13:37 42.08199 10.47537 38998 ft 473 kts 163°
2026-05-07 13:37 42.02252 10.51385 38999 ft 473 kts 163°
2026-05-07 13:38 41.96300 10.55227 38999 ft 473 kts 163°
2026-05-07 13:38 41.90379 10.59042 38985 ft 473 kts 163°
2026-05-07 13:39 41.84454 10.62850 38997 ft 473 kts 163°
2026-05-07 13:39 41.78488 10.66680 38999 ft 473 kts 163°
2026-05-07 13:40 41.72570 10.70470 39001 ft 473 kts 163°
2026-05-07 13:40 41.66653 10.74252 38982 ft 473 kts 165°
2026-05-07 13:41 41.60688 10.78056 39004 ft 473 kts 165°
2026-05-07 13:41 41.54763 10.81827 39002 ft 473 kts 165°
2026-05-07 13:42 41.48837 10.85591 38984 ft 473 kts 165°
2026-05-07 13:42 41.42879 10.89367 38991 ft 473 kts 166°
2026-05-07 13:43 41.36949 10.93117 38993 ft 473 kts 166°
2026-05-07 13:43 41.31017 10.96861 38993 ft 473 kts 166°
2026-05-07 13:44 41.25056 11.00617 38990 ft 473 kts 166°
2026-05-07 13:44 41.19096 11.04367 38990 ft 471 kts 168°
2026-05-07 13:45 41.13201 11.08068 38988 ft 470 kts 168°
2026-05-07 13:45 41.07275 11.11777 38988 ft 470 kts 168°
2026-05-07 13:46 41.01349 11.15479 38959 ft 470 kts 169°
2026-05-07 13:46 40.95478 11.19144 38985 ft 468 kts 169°
2026-05-07 13:47 40.89583 11.22815 38985 ft 467 kts 170°
2026-05-07 13:47 40.83728 11.26450 38982 ft 466 kts 170°
2026-05-07 13:48 40.77823 11.30109 38966 ft 466 kts 170°
2026-05-07 13:48 40.71965 11.33727 38977 ft 470 kts 170°
2026-05-07 13:49 40.66005 11.37403 38974 ft 472 kts 170°
2026-05-07 13:49 40.60063 11.41071 38980 ft 472 kts 170°
2026-05-07 13:50 40.54102 11.44742 38958 ft 472 kts 170°
2026-05-07 13:50 40.48171 11.48385 38975 ft 471 kts 170°
2026-05-07 13:51 40.42218 11.52033 38969 ft 471 kts 170°
2026-05-07 13:51 40.36298 11.55652 38969 ft 471 kts 170°
2026-05-07 13:52 40.30346 11.59285 38956 ft 470 kts 170°
2026-05-07 13:52 40.24446 11.62883 38966 ft 468 kts 170°
2026-05-07 13:53 40.18549 11.66468 38966 ft 467 kts 170°
2026-05-07 13:53 40.12664 11.70034 38966 ft 469 kts 170°
2026-05-07 13:54 40.06742 11.73614 38967 ft 471 kts 170°
2026-05-07 13:54 40.00784 11.77218 38962 ft 471 kts 170°
2026-05-07 13:55 39.94853 11.80799 38954 ft 471 kts 170°
2026-05-07 13:55 39.88899 11.84386 38955 ft 470 kts 170°
2026-05-07 13:56 39.82981 11.87944 38943 ft 469 kts 170°
2026-05-07 13:56 39.77036 11.91513 38958 ft 467 kts 170°
2026-05-07 13:57 39.71152 11.95035 38945 ft 467 kts 170°
2026-05-07 13:57 39.65227 11.98573 38940 ft 467 kts 170°
2026-05-07 13:58 39.59350 12.02078 38941 ft 465 kts 169°
2026-05-07 13:58 39.53513 12.05559 38932 ft 462 kts 169°
2026-05-07 13:59 39.47634 12.09048 38934 ft 464 kts 169°
2026-05-07 13:59 39.41781 12.12515 38934 ft 464 kts 169°
2026-05-07 14:00 39.35891 12.16002 38920 ft 464 kts 169°
2026-05-07 14:00 39.30048 12.19459 38930 ft 463 kts 169°
2026-05-07 14:01 39.24169 12.22926 38921 ft 463 kts 169°
2026-05-07 14:01 39.18318 12.26369 38916 ft 463 kts 169°
2026-05-07 14:02 39.12426 12.29830 38915 ft 465 kts 168°
2026-05-07 14:02 39.06539 12.33277 38908 ft 468 kts 168°
2026-05-07 14:03 39.00636 12.36734 38905 ft 468 kts 168°
2026-05-07 14:03 38.94691 12.40212 38902 ft 468 kts 168°
2026-05-07 14:04 38.88764 12.43683 38893 ft 476 kts 165°
2026-05-07 14:04 38.85825 12.45817 38895 ft 491 kts 159°
2026-05-07 14:04 38.82967 12.48179 38893 ft 495 kts 158°
2026-05-07 14:05 38.77244 12.53192 38886 ft 497 kts 156°
2026-05-07 14:05 38.71557 12.58275 38884 ft 497 kts 156°
2026-05-07 14:06 38.65902 12.63295 38854 ft 497 kts 156°
2026-05-07 14:06 38.60173 12.68338 38875 ft 498 kts 156°
2026-05-07 14:07 38.54474 12.73335 38876 ft 498 kts 156°
2026-05-07 14:07 38.48737 12.78356 38860 ft 499 kts 156°
2026-05-07 14:08 38.43020 12.83348 38868 ft 501 kts 156°
2026-05-07 14:08 38.37277 12.88357 38866 ft 501 kts 156°
2026-05-07 14:09 38.31513 12.93377 38861 ft 500 kts 156°
2026-05-07 14:09 38.25784 12.98354 38856 ft 500 kts 156°
2026-05-07 14:10 38.20043 13.03330 38858 ft 500 kts 156°
2026-05-07 14:10 38.14274 13.08322 38839 ft 500 kts 156°
2026-05-07 14:11 38.08560 13.13258 38695 ft 497 kts 156°
2026-05-07 14:11 38.05800 13.16009 38063 ft 512 kts 146°
2026-05-07 14:11 38.03384 13.19450 37331 ft 529 kts 133°
2026-05-07 14:11 38.01524 13.23548 36570 ft 543 kts 122°
2026-05-07 14:12 37.99945 13.27930 35811 ft 549 kts 119°
2026-05-07 14:12 37.98489 13.32428 34969 ft 554 kts 117°
2026-05-07 14:12 37.97098 13.36946 34054 ft 559 kts 117°
2026-05-07 14:12 37.95460 13.41398 33140 ft 554 kts 126°
2026-05-07 14:13 37.93489 13.45577 32604 ft 543 kts 129°
2026-05-07 14:13 37.91496 13.49546 31943 ft 539 kts 130°
2026-05-07 14:13 37.89449 13.53545 31123 ft 538 kts 130°
2026-05-07 14:13 37.87403 13.57515 30294 ft 538 kts 130°
2026-05-07 14:14 37.85350 13.61486 29300 ft 539 kts 130°
2026-05-07 14:14 37.83313 13.65417 28370 ft 539 kts 130°
2026-05-07 14:14 37.81269 13.69365 27727 ft 531 kts 130°
2026-05-07 14:14 37.79248 13.73262 27037 ft 526 kts 130°
2026-05-07 14:15 37.77244 13.77123 26454 ft 520 kts 129°
2026-05-07 14:15 37.75288 13.80881 25801 ft 514 kts 129°
2026-05-07 14:15 37.73320 13.84660 25140 ft 509 kts 129°
2026-05-07 14:15 37.71402 13.88334 24523 ft 503 kts 129°
2026-05-07 14:16 37.69478 13.92017 23862 ft 499 kts 128°
2026-05-07 14:16 37.67577 13.95656 23248 ft 493 kts 128°
2026-05-07 14:16 37.65706 13.99245 22644 ft 484 kts 128°
2026-05-07 14:16 37.63871 14.02751 21878 ft 481 kts 128°
2026-05-07 14:17 37.62035 14.06245 21236 ft 474 kts 128°
2026-05-07 14:17 37.60217 14.09701 20536 ft 469 kts 128°
2026-05-07 14:17 37.58422 14.13113 19909 ft 462 kts 128°
2026-05-07 14:17 37.56650 14.16477 19260 ft 457 kts 128°
2026-05-07 14:18 37.54902 14.19796 18667 ft 451 kts 128°
2026-05-07 14:18 37.53196 14.23033 18066 ft 445 kts 128°
2026-05-07 14:18 37.51506 14.26239 17416 ft 428 kts 128°
2026-05-07 14:18 37.49904 14.29282 16945 ft 401 kts 128°
2026-05-07 14:19 37.48423 14.32095 16566 ft 380 kts 129°
2026-05-07 14:19 37.46988 14.34809 15949 ft 366 kts 129°
2026-05-07 14:19 37.45578 14.37464 15040 ft 361 kts 128°
2026-05-07 14:19 37.44171 14.40107 13838 ft 365 kts 128°
2026-05-07 14:20 37.42739 14.42796 12489 ft 369 kts 128°
2026-05-07 14:20 37.41830 14.44608 11603 ft 372 kts 122°
2026-05-07 14:20 37.41078 14.48840 9938 ft 382 kts 91°
2026-05-07 14:20 37.41442 14.52138 8590 ft 378 kts 81°
2026-05-07 14:21 37.41767 14.54282 7719 ft 373 kts 82°
2026-05-07 14:21 37.42342 14.58504 6071 ft 361 kts 83°
2026-05-07 14:21 37.42691 14.61528 5322 ft 336 kts 83°
2026-05-07 14:21 37.42892 14.63412 5062 ft 312 kts 84°
2026-05-07 14:22 37.43274 14.66777 4957 ft 270 kts 83°
2026-05-07 14:22 37.43450 14.68288 4985 ft 256 kts 83°
2026-05-07 14:22 37.43668 14.70444 5004 ft 239 kts 86°
2026-05-07 14:22 37.43829 14.72439 5002 ft 224 kts 86°
2026-05-07 14:23 37.43977 14.74332 4978 ft 210 kts 86°
2026-05-07 14:23 37.44127 14.76129 4784 ft 206 kts 86°
2026-05-07 14:23 37.44277 14.77914 4474 ft 202 kts 86°
2026-05-07 14:23 37.44421 14.79637 4108 ft 200 kts 86°
2026-05-07 14:24 37.44566 14.81367 3765 ft 197 kts 86°
2026-05-07 14:24 37.44707 14.83067 3485 ft 193 kts 85°
2026-05-07 14:24 37.44847 14.84736 3233 ft 190 kts 85°
2026-05-07 14:24 37.44985 14.86380 2992 ft 186 kts 85°
2026-05-07 14:25 37.45119 14.87982 2757 ft 180 kts 85°
2026-05-07 14:25 37.45246 14.89504 2504 ft 174 kts 85°
2026-05-07 14:25 37.45371 14.90995 2303 ft 168 kts 85°
2026-05-07 14:25 37.45491 14.92441 2086 ft 162 kts 85°
2026-05-07 14:26 37.45605 14.93807 1858 ft 150 kts 84°
2026-05-07 14:26 37.45711 14.95062 1666 ft 137 kts 84°
2026-05-07 14:26 37.45804 14.96179 1494 ft 121 kts 83°
2026-05-07 14:26 37.45889 14.97199 1345 ft 115 kts 84°
2026-05-07 14:27 37.45971 14.98198 1188 ft 116 kts 83°
2026-05-07 14:27 37.46056 14.99208 1038 ft 118 kts 81°
2026-05-07 14:27 37.46143 15.00232 900 ft 117 kts 81°
2026-05-07 14:27 37.46227 15.01249 751 ft 117 kts 81°
2026-05-07 14:28 37.46311 15.02281 576 ft 118 kts 80°
2026-05-07 14:28 37.46398 15.03310 430 ft 116 kts 77°
2026-05-07 14:28 37.46483 15.04304 280 ft 113 kts 78°
2026-05-07 14:28 37.46560 15.05248 124 ft 105 kts 75°
2026-05-07 14:29 37.46635 15.06128 39 ft 90 kts 85°
2026-05-07 14:29 37.46675 15.06588 39 ft 22 kts 83°
2026-05-07 14:29 37.46696 15.06790 39 ft 25 kts 82°
2026-05-07 14:29 37.46724 15.06898 40 ft 8 kts 40°
2026-05-07 14:30 37.46789 15.06906 37 ft 11 kts 341°
2026-05-07 14:30 37.46851 15.06834 36 ft 14 kts 287°
2026-05-07 14:30 37.46851 15.06708 36 ft 15 kts 264°
2026-05-07 14:30 37.46838 15.06566 36 ft 17 kts 265°
2026-05-07 14:31 37.46827 15.06407 35 ft 18 kts 269°
2026-05-07 14:31 37.46895 15.06356 35 ft 10 kts
2026-05-07 14:31 37.46928 15.06372 35 ft 4 kts 34°
2026-05-07 14:31 37.46964 15.06404 35 ft 7 kts 33°
2026-05-07 14:32 37.46975 15.06413 35 ft 0 kts 32°
2026-05-07 14:33 37.46938 15.06383 35 ft 0 kts 39°